Time,TemperatureF,DewpointF,PressureIn,WindDirection,WindDirectionDegrees,WindSpeedMPH,WindSpeedGustMPH,Humidity,HourlyPrecipIn,Conditions,Clouds,dailyrainin,SoftwareType,DateUTC
2013-03-02 00:05:00,52.9,32.1,29.94,SW,214,4.9,7.6,45,0.00,,---,0.00,VWS V14.01,2013-03-02 08:05:00,
2013-03-02 00:10:00,52.7,32.5,29.94,SSW,197,5.8,6.3,46,0.00,,---,0.00,VWS V14.01,2013-03-02 08:10:00,
2013-03-02 00:16:00,52.5,32.3,29.94,SSW,204,5.8,5.8,46,0.00,,---,0.00,VWS V14.01,2013-03-02 08:16:00,
2013-03-02 00:22:00,52.3,32.2,29.94,SSW,195,3.1,3.1,46,0.00,,---,0.00,VWS V14.01,2013-03-02 08:22:00,
2013-03-02 00:27:00,52.3,32.2,29.94,SSW,192,0.0,0.0,46,0.00,,---,0.00,VWS V14.01,2013-03-02 08:27:00,
2013-03-02 00:33:00,52.3,32.2,29.94,SSW,194,3.1,5.4,46,0.00,,---,0.00,VWS V14.01,2013-03-02 08:33:00,
2013-03-02 00:38:00,52.3,32.2,29.94,SSW,211,5.4,6.3,46,0.00,,---,0.00,VWS V14.01,2013-03-02 08:38:00,
2013-03-02 00:44:00,52.3,32.2,29.94,South,182,6.3,8.1,46,0.00,,---,0.00,VWS V14.01,2013-03-02 08:44:00,
2013-03-02 00:50:00,52.5,32.3,29.94,SW,233,7.6,7.6,46,0.00,,---,0.00,VWS V14.01,2013-03-02 08:50:00,
2013-03-02 00:55:00,52.5,32.3,29.94,SSW,201,5.4,5.8,46,0.00,,---,0.00,VWS V14.01,2013-03-02 08:55:00,
2013-03-02 01:00:00,52.5,31.8,29.94,SE,136,5.8,7.6,45,0.00,,---,0.00,VWS V14.01,2013-03-02 09:00:00,
2013-03-02 01:05:00,52.5,31.2,29.94,SSW,196,5.4,5.4,44,0.00,,---,0.00,VWS V14.01,2013-03-02 09:05:00,
2013-03-02 01:11:00,52.5,31.2,29.94,SSW,209,3.6,4.0,44,0.00,,---,0.00,VWS V14.01,2013-03-02 09:11:00,
2013-03-02 01:16:00,52.5,31.2,29.94,SW,219,4.0,5.4,44,0.00,,---,0.00,VWS V14.01,2013-03-02 09:16:00,
2013-03-02 01:22:00,52.5,31.2,29.94,South,175,2.7,4.0,44,0.00,,---,0.00,VWS V14.01,2013-03-02 09:22:00,
2013-03-02 01:27:00,52.5,30.7,29.94,SSW,197,5.4,6.3,43,0.00,,---,0.00,VWS V14.01,2013-03-02 09:27:00,
2013-03-02 01:33:00,52.5,30.7,29.94,SSW,201,4.0,5.4,43,0.00,,---,0.00,VWS V14.01,2013-03-02 09:33:00,
2013-03-02 01:38:00,52.5,30.1,29.94,SSW,202,4.9,5.4,42,0.00,,---,0.00,VWS V14.01,2013-03-02 09:38:00,
2013-03-02 01:44:00,52.5,30.1,29.94,South,187,3.1,4.9,42,0.00,,---,0.00,VWS V14.01,2013-03-02 09:44:00,
2013-03-02 01:49:00,52.5,30.7,29.94,South,191,3.1,3.6,43,0.00,,---,0.00,VWS V14.01,2013-03-02 09:49:00,
2013-03-02 01:54:00,52.5,30.7,29.94,South,184,0.0,3.1,43,0.00,,---,0.00,VWS V14.01,2013-03-02 09:54:00,
2013-03-02 02:00:00,52.0,31.3,29.94,South,179,3.1,4.0,45,0.00,,---,0.00,VWS V14.01,2013-03-02 10:00:00,
2013-03-02 02:05:00,51.8,31.7,29.94,SSW,193,3.6,4.0,46,0.00,,---,0.00,VWS V14.01,2013-03-02 10:05:00,
2013-03-02 02:11:00,51.6,31.5,29.94,SSW,196,3.6,5.8,46,0.00,,---,0.00,VWS V14.01,2013-03-02 10:11:00,
2013-03-02 02:16:00,51.3,31.2,29.94,SSW,196,3.6,3.6,46,0.00,,---,0.00,VWS V14.01,2013-03-02 10:16:00,
2013-03-02 02:22:00,51.3,31.2,29.94,South,186,5.8,7.6,46,0.00,,---,0.00,VWS V14.01,2013-03-02 10:22:00,
2013-03-02 02:28:00,51.1,31.0,29.94,SSW,210,3.6,3.6,46,0.00,,---,0.00,VWS V14.01,2013-03-02 10:28:00,
2013-03-02 02:33:00,51.1,31.0,29.91,SW,214,4.0,6.3,46,0.00,,---,0.00,VWS V14.01,2013-03-02 10:33:00,
2013-03-02 02:39:00,50.9,30.9,29.91,SW,214,4.9,5.8,46,0.00,,---,0.00,VWS V14.01,2013-03-02 10:39:00,
2013-03-02 02:44:00,50.9,30.9,29.91,SSW,207,6.3,6.3,46,0.00,,---,0.00,VWS V14.01,2013-03-02 10:44:00,
2013-03-02 02:50:00,50.7,30.7,29.91,SW,232,3.6,6.3,46,0.00,,---,0.00,VWS V14.01,2013-03-02 10:50:00,
2013-03-02 02:55:00,50.7,30.7,29.91,SSW,203,4.0,6.3,46,0.00,,---,0.00,VWS V14.01,2013-03-02 10:55:00,
2013-03-02 03:01:00,50.7,30.2,29.91,SW,218,5.4,8.1,45,0.00,,---,0.00,VWS V14.01,2013-03-02 11:01:00,
2013-03-02 03:06:00,50.7,30.2,29.91,SSE,160,2.7,4.0,45,0.00,,---,0.00,VWS V14.01,2013-03-02 11:06:00,
2013-03-02 03:12:00,50.7,30.2,29.91,SW,219,4.0,5.4,45,0.00,,---,0.00,VWS V14.01,2013-03-02 11:12:00,
2013-03-02 03:18:00,50.5,29.5,29.88,SSW,206,3.6,5.4,44,0.00,,---,0.00,VWS V14.01,2013-03-02 11:18:00,
2013-03-02 03:23:00,50.4,29.3,29.88,SSW,200,6.3,8.3,44,0.00,,---,0.00,VWS V14.01,2013-03-02 11:23:00,
2013-03-02 03:29:00,50.2,29.1,29.88,SSW,196,5.4,8.1,44,0.00,,---,0.00,VWS V14.01,2013-03-02 11:29:00,
2013-03-02 03:35:00,50.4,29.3,29.88,SW,224,7.6,8.3,44,0.00,,---,0.00,VWS V14.01,2013-03-02 11:35:00,
2013-03-02 03:40:00,50.5,29.5,29.88,South,181,5.4,8.7,44,0.00,,---,0.00,VWS V14.01,2013-03-02 11:40:00,
2013-03-02 03:46:00,50.5,28.9,29.88,WSW,250,5.4,5.4,43,0.00,,---,0.00,VWS V14.01,2013-03-02 11:46:00,
2013-03-02 03:51:00,50.5,28.9,29.88,South,174,7.6,7.6,43,0.00,,---,0.00,VWS V14.01,2013-03-02 11:51:00,
2013-03-02 03:56:00,50.5,28.9,29.88,SSW,207,6.3,6.3,43,0.00,,---,0.00,VWS V14.01,2013-03-02 11:56:00,
2013-03-02 04:01:00,50.7,29.1,29.88,South,190,3.1,6.3,43,0.00,,---,0.00,VWS V14.01,2013-03-02 12:01:00,
2013-03-02 04:07:00,50.5,28.9,29.88,SE,126,3.6,5.4,43,0.00,,---,0.00,VWS V14.01,2013-03-02 12:07:00,
2013-03-02 04:12:00,50.7,28.5,29.88,South,182,5.8,5.8,42,0.00,,---,0.00,VWS V14.01,2013-03-02 12:12:00,
2013-03-02 04:18:00,51.1,28.2,29.88,SSW,199,4.0,6.3,41,0.00,,---,0.00,VWS V14.01,2013-03-02 12:18:00,
2013-03-02 04:24:00,51.4,27.9,29.88,SSW,208,7.6,8.7,40,0.00,,---,0.00,VWS V14.01,2013-03-02 12:24:00,
2013-03-02 04:29:00,51.6,28.1,29.88,South,183,5.8,7.2,40,0.00,,---,0.00,VWS V14.01,2013-03-02 12:29:00,
2013-03-02 04:35:00,51.6,28.1,29.88,SSW,197,2.7,4.0,40,0.00,,---,0.00,VWS V14.01,2013-03-02 12:35:00,
2013-03-02 04:41:00,51.1,28.2,29.88,South,183,5.4,5.4,41,0.00,,---,0.00,VWS V14.01,2013-03-02 12:41:00,
2013-03-02 04:46:00,50.7,27.9,29.88,SSW,207,4.0,5.4,41,0.00,,---,0.00,VWS V14.01,2013-03-02 12:46:00,
2013-03-02 04:52:00,50.5,28.3,29.88,SSW,194,3.1,4.9,42,0.00,,---,0.00,VWS V14.01,2013-03-02 12:52:00,
2013-03-02 04:57:00,50.2,28.6,29.88,SSW,211,3.6,5.4,43,0.00,,---,0.00,VWS V14.01,2013-03-02 12:57:00,
2013-03-02 05:03:00,50.0,28.4,29.85,South,184,3.1,4.9,43,0.00,,---,0.00,VWS V14.01,2013-03-02 13:03:00,
2013-03-02 05:08:00,50.2,28.6,29.85,South,186,3.6,4.9,43,0.00,,---,0.00,VWS V14.01,2013-03-02 13:08:00,
2013-03-02 05:14:00,50.0,27.8,29.85,SW,217,5.8,6.3,42,0.00,,---,0.00,VWS V14.01,2013-03-02 13:14:00,
2013-03-02 05:19:00,50.2,28.0,29.85,SSW,202,4.0,5.4,42,0.00,,---,0.00,VWS V14.01,2013-03-02 13:19:00,
2013-03-02 05:24:00,50.4,27.6,29.85,SE,146,4.0,5.8,41,0.00,,---,0.00,VWS V14.01,2013-03-02 13:24:00,
2013-03-02 05:30:00,50.9,27.5,29.85,SSW,200,6.3,6.3,40,0.00,,---,0.00,VWS V14.01,2013-03-02 13:30:00,
2013-03-02 05:35:00,51.4,27.3,29.85,East,90,3.1,4.0,39,0.00,,---,0.00,VWS V14.01,2013-03-02 13:35:00,
2013-03-02 05:41:00,51.8,27.0,29.85,South,179,4.9,5.8,38,0.00,,---,0.00,VWS V14.01,2013-03-02 13:41:00,
2013-03-02 05:46:00,52.0,26.5,29.85,West,267,3.6,6.3,37,0.00,,---,0.00,VWS V14.01,2013-03-02 13:46:00,
2013-03-02 05:52:00,52.2,26.7,29.85,SSE,151,5.4,5.4,37,0.00,,---,0.00,VWS V14.01,2013-03-02 13:52:00,
2013-03-02 05:57:00,52.2,26.7,29.85,SSW,202,5.4,8.1,37,0.00,,---,0.00,VWS V14.01,2013-03-02 13:57:00,
2013-03-02 06:03:00,52.2,26.7,29.85,NW,316,2.2,5.4,37,0.00,,---,0.00,VWS V14.01,2013-03-02 14:03:00,
2013-03-02 06:08:00,52.3,26.9,29.85,SSE,165,3.1,3.1,37,0.00,,---,0.00,VWS V14.01,2013-03-02 14:08:00,
2013-03-02 06:13:00,52.5,27.0,29.85,SSW,205,3.1,4.5,37,0.00,,---,0.00,VWS V14.01,2013-03-02 14:13:00,
2013-03-02 06:19:00,52.5,26.4,29.85,SSW,197,3.1,5.8,36,0.00,,---,0.00,VWS V14.01,2013-03-02 14:19:00,
2013-03-02 06:25:00,52.5,26.4,29.85,WNW,291,4.0,5.4,36,0.00,,---,0.00,VWS V14.01,2013-03-02 14:25:00,
2013-03-02 06:31:00,52.3,26.2,29.85,SE,140,4.0,4.0,36,0.00,,---,0.00,VWS V14.01,2013-03-02 14:31:00,
2013-03-02 06:37:00,52.2,26.7,29.85,SSW,192,5.4,8.1,37,0.00,,---,0.00,VWS V14.01,2013-03-02 14:37:00,
2013-03-02 06:42:00,52.2,26.0,29.85,ENE,78,2.7,3.6,36,0.00,,---,0.00,VWS V14.01,2013-03-02 14:42:00,
2013-03-02 06:48:00,52.0,26.5,29.85,SE,143,5.4,6.3,37,0.00,,---,0.00,VWS V14.01,2013-03-02 14:48:00,
2013-03-02 06:53:00,52.0,26.5,29.85,SSE,165,7.2,7.2,37,0.00,,---,0.00,VWS V14.01,2013-03-02 14:53:00,
2013-03-02 06:59:00,51.8,26.4,29.85,South,169,8.1,8.7,37,0.00,,---,0.00,VWS V14.01,2013-03-02 14:59:00,
2013-03-02 07:04:00,51.8,26.4,29.85,East,79,5.8,8.1,37,0.00,,---,0.00,VWS V14.01,2013-03-02 15:04:00,
2013-03-02 07:10:00,51.8,26.4,29.85,WSW,255,5.4,10.1,37,0.00,,---,0.00,VWS V14.01,2013-03-02 15:10:00,
2013-03-02 07:15:00,51.8,26.4,29.85,NNW,344,3.6,5.8,37,0.00,,---,0.00,VWS V14.01,2013-03-02 15:15:00,
2013-03-02 07:20:00,51.8,26.4,29.85,SW,219,5.4,7.2,37,0.00,,---,0.00,VWS V14.01,2013-03-02 15:20:00,
2013-03-02 07:25:00,51.8,26.4,29.85,ENE,75,2.7,4.9,37,0.00,,---,0.00,VWS V14.01,2013-03-02 15:25:00,
2013-03-02 07:31:00,51.8,26.4,29.85,SW,230,3.1,4.9,37,0.00,,---,0.00,VWS V14.01,2013-03-02 15:31:00,
2013-03-02 07:37:00,52.0,26.5,29.85,SE,128,3.1,5.8,37,0.00,,---,0.00,VWS V14.01,2013-03-02 15:37:00,
2013-03-02 07:43:00,52.0,26.5,29.85,South,170,2.7,8.7,37,0.00,,---,0.00,VWS V14.01,2013-03-02 15:43:00,
2013-03-02 07:48:00,52.0,26.5,29.83,SSW,207,5.8,10.1,37,0.00,,---,0.00,VWS V14.01,2013-03-02 15:48:00,
2013-03-02 07:54:00,52.0,26.5,29.83,SSW,199,8.1,8.1,37,0.00,,---,0.00,VWS V14.01,2013-03-02 15:54:00,
2013-03-02 07:59:00,52.2,26.7,29.83,SE,125,8.1,8.1,37,0.00,,---,0.00,VWS V14.01,2013-03-02 15:59:00,
2013-03-02 08:05:00,52.3,26.9,29.83,South,180,4.0,4.0,37,0.00,,---,0.00,VWS V14.01,2013-03-02 16:05:00,
2013-03-02 08:10:00,52.3,26.2,29.83,SSE,167,5.8,5.8,36,0.00,,---,0.00,VWS V14.01,2013-03-02 16:10:00,
2013-03-02 08:16:00,52.5,26.4,29.83,SW,222,5.4,5.4,36,0.00,,---,0.00,VWS V14.01,2013-03-02 16:16:00,
2013-03-02 08:22:00,52.9,26.7,29.83,SW,227,4.9,6.3,36,0.00,,---,0.00,VWS V14.01,2013-03-02 16:22:00,
2013-03-02 08:27:00,53.1,26.8,29.83,SE,126,5.4,8.7,36,0.00,,---,0.00,VWS V14.01,2013-03-02 16:27:00,
2013-03-02 08:33:00,53.1,26.8,29.83,NE,43,2.7,5.8,36,0.00,,---,0.00,VWS V14.01,2013-03-02 16:33:00,
2013-03-02 08:38:00,53.1,26.8,29.83,SE,139,3.6,8.3,36,0.00,,---,0.00,VWS V14.01,2013-03-02 16:38:00,
2013-03-02 08:44:00,53.2,27.0,29.83,South,176,3.6,5.4,36,0.00,,---,0.00,VWS V14.01,2013-03-02 16:44:00,
2013-03-02 08:50:00,53.6,27.3,29.83,NNW,336,3.1,4.9,36,0.00,,---,0.00,VWS V14.01,2013-03-02 16:50:00,
2013-03-02 08:55:00,53.8,27.5,29.83,NNW,348,2.7,6.3,36,0.00,,---,0.00,VWS V14.01,2013-03-02 16:55:00,
2013-03-02 09:00:00,54.0,27.6,29.83,WSW,256,4.0,4.9,36,0.00,,---,0.00,VWS V14.01,2013-03-02 17:00:00,
2013-03-02 09:05:00,54.1,27.8,29.83,South,172,5.4,6.3,36,0.00,,---,0.00,VWS V14.01,2013-03-02 17:05:00,
2013-03-02 09:11:00,54.1,27.8,29.83,ENE,61,2.2,4.0,36,0.00,,---,0.00,VWS V14.01,2013-03-02 17:11:00,
2013-03-02 09:16:00,54.5,27.4,29.83,South,173,2.7,5.8,35,0.00,,---,0.00,VWS V14.01,2013-03-02 17:16:00,
2013-03-02 09:22:00,54.7,27.6,29.83,East,82,4.9,7.6,35,0.00,,---,0.00,VWS V14.01,2013-03-02 17:22:00,
2013-03-02 09:28:00,54.9,27.8,29.83,NNW,339,6.3,6.3,35,0.00,,---,0.00,VWS V14.01,2013-03-02 17:28:00,
2013-03-02 09:33:00,54.9,27.8,29.83,NNW,348,8.7,8.7,35,0.00,,---,0.00,VWS V14.01,2013-03-02 17:33:00,
2013-03-02 09:38:00,54.9,27.8,29.83,NW,325,5.4,11.0,35,0.00,,---,0.00,VWS V14.01,2013-03-02 17:38:00,
2013-03-02 09:43:00,54.9,27.8,29.83,South,182,6.3,6.7,35,0.00,,---,0.00,VWS V14.01,2013-03-02 17:43:00,
2013-03-02 09:49:00,54.9,27.8,29.83,NNE,20,2.7,5.4,35,0.00,,---,0.00,VWS V14.01,2013-03-02 17:49:00,
2013-03-02 09:54:00,55.0,27.9,29.83,NNE,33,5.8,5.8,35,0.00,,---,0.00,VWS V14.01,2013-03-02 17:54:00,
2013-03-02 10:00:00,55.2,28.1,29.83,SW,227,4.0,4.0,35,0.00,,---,0.00,VWS V14.01,2013-03-02 18:00:00,
2013-03-02 10:05:00,55.4,27.5,29.83,NNE,22,3.1,4.0,34,0.00,,---,0.00,VWS V14.01,2013-03-02 18:05:00,
2013-03-02 10:11:00,55.4,27.5,29.83,NE,41,4.9,5.8,34,0.00,,---,0.00,VWS V14.01,2013-03-02 18:11:00,
2013-03-02 10:16:00,55.8,27.1,29.83,NNE,26,11.0,11.0,33,0.00,,---,0.00,VWS V14.01,2013-03-02 18:16:00,
2013-03-02 10:22:00,55.8,27.8,29.83,ESE,110,2.7,8.7,34,0.00,,---,0.00,VWS V14.01,2013-03-02 18:22:00,
2013-03-02 10:27:00,55.9,27.3,29.83,NW,325,2.7,8.3,33,0.00,,---,0.00,VWS V14.01,2013-03-02 18:27:00,
2013-03-02 10:32:00,56.3,27.6,29.80,WNW,292,6.3,6.3,33,0.00,,---,0.00,VWS V14.01,2013-03-02 18:32:00,
2013-03-02 10:38:00,56.1,27.4,29.80,SE,130,3.6,5.4,33,0.00,,---,0.00,VWS V14.01,2013-03-02 18:38:00,
2013-03-02 10:43:00,56.5,27.0,29.80,NW,313,6.7,12.3,32,0.00,,---,0.00,VWS V14.01,2013-03-02 18:43:00,
2013-03-02 10:48:00,56.1,27.4,29.80,NNW,328,2.7,5.4,33,0.00,,---,0.00,VWS V14.01,2013-03-02 18:48:00,
2013-03-02 10:53:00,56.1,27.4,29.80,SW,221,4.9,10.1,33,0.00,,---,0.00,VWS V14.01,2013-03-02 18:53:00,
2013-03-02 10:59:00,56.1,27.4,29.80,SW,214,5.8,8.1,33,0.00,,---,0.00,VWS V14.01,2013-03-02 18:59:00,
2013-03-02 11:04:00,56.1,27.4,29.80,WSW,248,5.4,5.8,33,0.00,,---,0.00,VWS V14.01,2013-03-02 19:04:00,
2013-03-02 11:10:00,56.1,27.4,29.80,East,89,3.1,3.6,33,0.00,,---,0.00,VWS V14.01,2013-03-02 19:10:00,
2013-03-02 11:15:00,55.9,27.3,29.80,NW,316,8.3,8.3,33,0.00,,---,0.00,VWS V14.01,2013-03-02 19:15:00,
2013-03-02 11:21:00,55.6,27.0,29.80,West,275,3.6,11.0,33,0.00,,---,0.00,VWS V14.01,2013-03-02 19:21:00,
2013-03-02 11:27:00,55.8,27.1,29.80,ESE,122,7.6,7.6,33,0.00,,---,0.00,VWS V14.01,2013-03-02 19:27:00,
2013-03-02 11:32:00,55.9,27.3,29.80,WNW,289,3.1,5.4,33,0.00,,---,0.00,VWS V14.01,2013-03-02 19:32:00,
2013-03-02 11:38:00,56.3,27.6,29.80,SSE,149,2.7,8.1,33,0.00,,---,0.00,VWS V14.01,2013-03-02 19:38:00,
2013-03-02 11:43:00,56.7,27.2,29.80,WSW,254,8.7,8.7,32,0.00,,---,0.00,VWS V14.01,2013-03-02 19:43:00,
2013-03-02 11:49:00,56.5,27.0,29.80,SSW,201,6.3,7.2,32,0.00,,---,0.00,VWS V14.01,2013-03-02 19:49:00,
2013-03-02 11:55:00,56.5,27.0,29.80,NNW,334,4.0,4.0,32,0.00,,---,0.00,VWS V14.01,2013-03-02 19:55:00,
2013-03-02 12:00:00,56.5,27.0,29.77,NNW,333,5.8,12.3,32,0.00,,---,0.00,VWS V14.01,2013-03-02 20:00:00,
2013-03-02 12:05:00,56.5,27.0,29.77,South,191,5.8,6.3,32,0.00,,---,0.00,VWS V14.01,2013-03-02 20:05:00,
2013-03-02 12:11:00,56.7,27.2,29.77,NNW,335,5.4,7.6,32,0.00,,---,0.00,VWS V14.01,2013-03-02 20:11:00,
2013-03-02 12:17:00,56.7,26.4,29.77,West,265,8.7,8.7,31,0.00,,---,0.00,VWS V14.01,2013-03-02 20:17:00,
2013-03-02 12:22:00,56.7,27.2,29.77,North,4,10.1,10.1,32,0.00,,---,0.00,VWS V14.01,2013-03-02 20:22:00,
2013-03-02 12:28:00,56.1,26.7,29.77,WSW,245,5.8,8.7,32,0.00,,---,0.00,VWS V14.01,2013-03-02 20:28:00,
2013-03-02 12:33:00,56.3,26.8,29.77,North,0,5.8,7.6,32,0.00,,---,0.00,VWS V14.01,2013-03-02 20:33:00,
2013-03-02 12:39:00,56.7,26.4,29.77,West,279,3.1,6.3,31,0.00,,---,0.00,VWS V14.01,2013-03-02 20:39:00,
2013-03-02 12:44:00,57.0,26.7,29.77,North,0,2.7,10.1,31,0.00,,---,0.00,VWS V14.01,2013-03-02 20:44:00,
2013-03-02 12:49:00,56.8,26.5,29.77,WNW,294,4.9,9.6,31,0.00,,---,0.00,VWS V14.01,2013-03-02 20:49:00,
2013-03-02 12:55:00,57.6,26.4,29.77,NNW,338,9.6,9.6,30,0.00,,---,0.00,VWS V14.01,2013-03-02 20:55:00,
2013-03-02 13:00:00,57.7,26.5,29.77,WNW,285,3.1,8.3,30,0.00,,---,0.00,VWS V14.01,2013-03-02 21:00:00,
2013-03-02 13:06:00,57.4,26.2,29.77,WNW,294,4.5,6.3,30,0.00,,---,0.00,VWS V14.01,2013-03-02 21:06:00,
2013-03-02 13:11:00,56.7,25.6,29.77,NNW,333,6.3,6.3,30,0.00,,---,0.00,VWS V14.01,2013-03-02 21:11:00,
2013-03-02 13:17:00,55.9,25.8,29.77,SE,130,4.9,8.7,31,0.00,,---,0.00,VWS V14.01,2013-03-02 21:17:00,
2013-03-02 13:23:00,55.9,25.8,29.77,SW,236,10.1,10.1,31,0.00,,---,0.00,VWS V14.01,2013-03-02 21:23:00,
2013-03-02 13:29:00,55.9,25.8,29.77,SSW,204,4.9,4.9,31,0.00,,---,0.00,VWS V14.01,2013-03-02 21:29:00,
2013-03-02 13:34:00,55.9,25.8,29.77,NNW,332,3.1,10.5,31,0.00,,---,0.00,VWS V14.01,2013-03-02 21:34:00,
2013-03-02 13:40:00,55.6,25.5,29.77,NW,310,4.0,6.3,31,0.00,,---,0.00,VWS V14.01,2013-03-02 21:40:00,
2013-03-02 13:45:00,55.4,26.0,29.77,NW,319,5.8,5.8,32,0.00,,---,0.00,VWS V14.01,2013-03-02 21:45:00,
2013-03-02 13:51:00,55.0,26.5,29.77,North,353,4.0,5.8,33,0.00,,---,0.00,VWS V14.01,2013-03-02 21:51:00,
2013-03-02 13:57:00,54.5,27.4,29.77,NW,310,3.6,10.1,35,0.00,,---,0.00,VWS V14.01,2013-03-02 21:57:00,
2013-03-02 14:03:00,54.3,28.0,29.77,NE,38,4.5,6.3,36,0.00,,---,0.00,VWS V14.01,2013-03-02 22:03:00,
2013-03-02 14:09:00,54.3,28.0,29.77,NW,324,6.7,6.7,36,0.00,,---,0.00,VWS V14.01,2013-03-02 22:09:00,
2013-03-02 14:14:00,54.1,27.8,29.74,NNW,332,2.2,5.8,36,0.00,,---,0.00,VWS V14.01,2013-03-02 22:14:00,
2013-03-02 14:19:00,54.0,28.3,29.74,NNW,335,4.0,4.9,37,0.00,,---,0.00,VWS V14.01,2013-03-02 22:19:00,
2013-03-02 14:25:00,53.8,28.1,29.74,SSE,154,3.6,3.6,37,0.00,,---,0.00,VWS V14.01,2013-03-02 22:25:00,
2013-03-02 14:30:00,53.8,28.1,29.74,NW,322,5.8,5.8,37,0.00,,---,0.00,VWS V14.01,2013-03-02 22:30:00,
2013-03-02 14:36:00,53.6,28.0,29.74,WNW,292,4.0,6.3,37,0.00,,---,0.00,VWS V14.01,2013-03-02 22:36:00,
2013-03-02 14:41:00,53.4,27.8,29.74,North,353,3.1,4.9,37,0.00,,---,0.00,VWS V14.01,2013-03-02 22:41:00,
2013-03-02 14:46:00,53.2,28.3,29.74,WNW,295,3.6,5.4,38,0.00,,---,0.00,VWS V14.01,2013-03-02 22:46:00,
2013-03-02 14:52:00,52.7,29.1,29.74,East,100,2.7,2.7,40,0.00,,---,0.00,VWS V14.01,2013-03-02 22:52:00,
2013-03-02 14:58:00,52.2,29.8,29.74,West,263,2.2,4.0,42,0.00,,---,0.00,VWS V14.01,2013-03-02 22:58:00,
2013-03-02 15:04:00,51.8,31.1,29.74,NW,308,3.6,4.0,45,0.00,,---,0.00,VWS V14.01,2013-03-02 23:04:00,
2013-03-02 15:09:00,51.6,31.5,29.74,NW,307,5.8,7.6,46,0.00,,---,0.00,VWS V14.01,2013-03-02 23:09:00,
2013-03-02 15:15:00,51.6,31.5,29.74,WNW,282,5.8,7.2,46,0.00,,---,0.00,VWS V14.01,2013-03-02 23:15:00,
2013-03-02 15:20:00,51.6,31.5,29.74,WNW,289,0.0,0.0,46,0.00,,---,0.00,VWS V14.01,2013-03-02 23:20:00,
2013-03-02 15:26:00,51.6,32.1,29.74,North,0,3.6,4.0,47,0.00,,---,0.00,VWS V14.01,2013-03-02 23:26:00,
2013-03-02 15:31:00,51.4,31.9,29.74,NW,307,3.1,3.6,47,0.00,,---,0.00,VWS V14.01,2013-03-02 23:31:00,
2013-03-02 15:37:00,51.4,32.4,29.74,WNW,289,2.7,2.7,48,0.00,,---,0.00,VWS V14.01,2013-03-02 23:37:00,
2013-03-02 15:43:00,51.3,31.7,29.74,SW,225,5.8,6.3,47,0.00,,---,0.00,VWS V14.01,2013-03-02 23:43:00,
2013-03-02 15:49:00,51.1,31.6,29.74,NW,305,3.1,6.3,47,0.00,,---,0.00,VWS V14.01,2013-03-02 23:49:00,
2013-03-02 15:54:00,50.9,31.4,29.74,WNW,302,4.0,4.0,47,0.00,,---,0.00,VWS V14.01,2013-03-02 23:54:00,
2013-03-02 15:59:00,50.9,31.4,29.74,NW,326,2.7,3.1,47,0.00,,---,0.00,VWS V14.01,2013-03-02 23:59:00,
2013-03-02 16:04:00,50.9,31.4,29.74,ENE,66,2.2,3.1,47,0.00,,---,0.00,VWS V14.01,2013-03-03 00:04:00,
2013-03-02 16:10:00,49.3,25.4,29.74,NW,316,0.0,0.0,39,0.00,,---,0.00,VWS V14.01,2013-03-03 00:10:00,
2013-03-02 16:15:00,48.2,24.4,29.74,ESE,111,8.3,10.1,39,0.00,,---,0.00,VWS V14.01,2013-03-03 00:15:00,
2013-03-02 16:21:00,46.9,23.9,29.74,East,94,8.1,8.1,40,0.00,,---,0.00,VWS V14.01,2013-03-03 00:21:00,
2013-03-02 16:26:00,46.0,23.7,29.74,NNW,334,2.7,4.9,41,0.00,,---,0.00,VWS V14.01,2013-03-03 00:26:00,
2013-03-02 16:31:00,45.3,22.4,29.77,ENE,75,5.4,5.4,40,0.00,,---,0.00,VWS V14.01,2013-03-03 00:31:00,
2013-03-02 16:36:00,44.8,23.7,29.77,ENE,65,2.7,7.2,43,0.00,,---,0.00,VWS V14.01,2013-03-03 00:36:00,
2013-03-02 16:42:00,44.1,24.6,29.77,East,84,4.5,5.8,46,0.00,,---,0.00,VWS V14.01,2013-03-03 00:42:00,
2013-03-02 16:47:00,43.5,25.1,29.77,ENE,67,4.5,10.5,48,0.04,,---,0.04,VWS V14.01,2013-03-03 00:47:00,
2013-03-02 16:53:00,43.0,25.1,29.77,East,84,6.7,11.0,49,0.04,,---,0.04,VWS V14.01,2013-03-03 00:53:00,
2013-03-02 16:58:00,42.6,25.8,29.77,ESE,108,7.6,10.5,51,0.04,,---,0.04,VWS V14.01,2013-03-03 00:58:00,
2013-03-02 17:04:00,42.4,25.6,29.77,East,98,3.1,5.4,51,0.04,,---,0.04,VWS V14.01,2013-03-03 01:04:00,
2013-03-02 17:10:00,42.3,25.9,29.77,East,83,7.2,7.2,52,0.04,,---,0.04,VWS V14.01,2013-03-03 01:10:00,
2013-03-02 17:15:00,42.3,25.9,29.77,ENE,66,5.4,8.7,52,0.04,,---,0.04,VWS V14.01,2013-03-03 01:15:00,
2013-03-02 17:21:00,42.3,26.4,29.77,South,179,4.0,5.4,53,0.04,,---,0.04,VWS V14.01,2013-03-03 01:21:00,
2013-03-02 17:26:00,42.1,25.7,29.77,NE,37,7.6,12.3,52,0.08,,---,0.08,VWS V14.01,2013-03-03 01:26:00,
2013-03-02 17:32:00,42.1,26.6,29.77,SE,132,6.3,6.3,54,0.08,,---,0.08,VWS V14.01,2013-03-03 01:32:00,
2013-03-02 17:38:00,41.9,26.0,29.77,East,88,4.0,5.8,53,0.08,,---,0.08,VWS V14.01,2013-03-03 01:38:00,
2013-03-02 17:43:00,41.9,26.0,29.77,SSE,161,5.8,5.8,53,0.08,,---,0.08,VWS V14.01,2013-03-03 01:43:00,
2013-03-02 17:49:00,41.9,26.5,29.80,SSE,165,2.2,4.0,54,0.04,,---,0.08,VWS V14.01,2013-03-03 01:49:00,
2013-03-02 17:55:00,41.7,26.8,29.80,ESE,120,4.9,4.9,55,0.04,,---,0.08,VWS V14.01,2013-03-03 01:55:00,
2013-03-02 18:00:00,41.7,27.2,29.80,SSE,156,2.7,4.0,56,0.04,,---,0.08,VWS V14.01,2013-03-03 02:00:00,
2013-03-02 18:06:00,41.7,26.8,29.80,SSE,153,6.3,6.3,55,0.04,,---,0.08,VWS V14.01,2013-03-03 02:06:00,
2013-03-02 18:11:00,41.7,26.3,29.80,NE,54,4.0,6.3,54,0.04,,---,0.08,VWS V14.01,2013-03-03 02:11:00,
2013-03-02 18:17:00,41.7,26.3,29.80,ESE,121,4.9,6.3,54,0.04,,---,0.08,VWS V14.01,2013-03-03 02:17:00,
2013-03-02 18:23:00,41.5,26.6,29.80,ESE,123,3.6,4.0,55,0.04,,---,0.08,VWS V14.01,2013-03-03 02:23:00,
2013-03-02 18:28:00,41.5,27.5,29.80,SE,134,5.8,5.8,57,0.00,,---,0.08,VWS V14.01,2013-03-03 02:28:00,
2013-03-02 18:34:00,41.5,27.5,29.80,SSE,157,5.4,6.7,57,0.00,,---,0.08,VWS V14.01,2013-03-03 02:34:00,
2013-03-02 18:39:00,41.5,27.9,29.80,SE,144,2.2,2.7,58,0.00,,---,0.08,VWS V14.01,2013-03-03 02:39:00,
2013-03-02 18:45:00,41.4,29.7,29.83,SSW,211,6.3,6.3,63,0.00,,---,0.08,VWS V14.01,2013-03-03 02:45:00,
2013-03-02 18:51:00,41.2,29.9,29.83,South,186,5.4,5.8,64,0.00,,---,0.08,VWS V14.01,2013-03-03 02:51:00,
2013-03-02 18:56:00,41.0,30.5,29.83,SW,215,6.3,8.3,66,0.08,,---,0.16,VWS V14.01,2013-03-03 02:56:00,
2013-03-02 19:02:00,41.0,30.9,29.83,SSW,198,6.3,7.2,67,0.08,,---,0.16,VWS V14.01,2013-03-03 03:02:00,
2013-03-02 19:07:00,41.0,31.6,29.83,SW,220,6.3,8.7,69,0.08,,---,0.16,VWS V14.01,2013-03-03 03:07:00,
2013-03-02 19:13:00,40.8,32.8,29.83,SSW,200,3.6,5.4,73,0.12,,---,0.20,VWS V14.01,2013-03-03 03:13:00,
2013-03-02 19:18:00,40.8,33.2,29.83,SSW,210,3.6,5.4,74,0.12,,---,0.20,VWS V14.01,2013-03-03 03:18:00,
2013-03-02 19:24:00,40.6,33.0,29.83,South,188,5.8,5.8,74,0.12,,---,0.20,VWS V14.01,2013-03-03 03:24:00,
2013-03-02 19:30:00,40.6,33.0,29.83,SSW,207,3.6,3.6,74,0.16,,---,0.24,VWS V14.01,2013-03-03 03:30:00,
2013-03-02 19:35:00,40.5,33.2,29.83,SSW,211,5.8,8.1,75,0.16,,---,0.24,VWS V14.01,2013-03-03 03:35:00,
2013-03-02 19:41:00,40.5,33.8,29.83,SSW,211,3.6,6.3,77,0.16,,---,0.24,VWS V14.01,2013-03-03 03:41:00,
2013-03-02 19:46:00,40.3,34.0,29.83,SSW,205,4.0,10.1,78,0.16,,---,0.24,VWS V14.01,2013-03-03 03:46:00,
2013-03-02 19:52:00,40.1,33.8,29.83,SSW,200,7.6,8.7,78,0.16,,---,0.24,VWS V14.01,2013-03-03 03:52:00,
2013-03-02 19:58:00,39.9,33.3,29.83,SSW,199,4.0,5.4,77,0.08,,---,0.24,VWS V14.01,2013-03-03 03:58:00,
2013-03-02 20:03:00,39.7,32.8,29.83,SSW,208,4.9,7.6,76,0.08,,---,0.24,VWS V14.01,2013-03-03 04:03:00,
2013-03-02 20:09:00,39.7,33.1,29.83,SSW,212,3.6,3.6,77,0.08,,---,0.24,VWS V14.01,2013-03-03 04:09:00,
2013-03-02 20:15:00,39.7,33.1,29.85,SSW,192,3.6,4.9,77,0.04,,---,0.24,VWS V14.01,2013-03-03 04:15:00,
2013-03-02 20:20:00,39.7,33.1,29.85,SW,221,2.7,7.6,77,0.08,,---,0.28,VWS V14.01,2013-03-03 04:20:00,
2013-03-02 20:26:00,39.7,33.5,29.85,SW,218,3.1,3.1,78,0.08,,---,0.28,VWS V14.01,2013-03-03 04:26:00,
2013-03-02 20:31:00,39.6,33.3,29.85,SSW,204,5.8,6.3,78,0.04,,---,0.28,VWS V14.01,2013-03-03 04:31:00,
2013-03-02 20:37:00,39.6,33.3,29.85,SE,143,3.6,4.0,78,0.04,,---,0.28,VWS V14.01,2013-03-03 04:37:00,
2013-03-02 20:43:00,39.7,33.8,29.85,SE,142,4.0,5.8,79,0.04,,---,0.28,VWS V14.01,2013-03-03 04:43:00,
2013-03-02 20:48:00,39.6,33.6,29.85,SSW,204,3.6,4.0,79,0.04,,---,0.28,VWS V14.01,2013-03-03 04:48:00,
2013-03-02 20:54:00,39.6,33.9,29.85,South,173,0.0,2.2,80,0.04,,---,0.28,VWS V14.01,2013-03-03 04:54:00,
2013-03-02 20:59:00,39.6,34.2,29.85,SSE,153,3.1,3.1,81,0.04,,---,0.28,VWS V14.01,2013-03-03 04:59:00,
2013-03-02 21:00:00,39.6,34.2,29.85,SE,140,2.2,3.6,81,0.04,,---,0.28,VWS V14.01,2013-03-03 05:00:00,
2013-03-02 21:01:00,39.6,34.2,29.85,SSE,154,4.0,4.0,81,0.04,,---,0.28,VWS V14.01,2013-03-03 05:01:00,
2013-03-02 21:02:00,39.6,34.2,29.85,South,182,2.2,4.9,81,0.04,,---,0.28,VWS V14.01,2013-03-03 05:02:00,
2013-03-02 21:04:00,39.6,34.5,29.85,SSE,166,2.7,3.6,82,0.04,,---,0.28,VWS V14.01,2013-03-03 05:04:00,
2013-03-02 21:09:00,39.4,34.3,29.85,South,184,4.0,4.0,82,0.04,,---,0.28,VWS V14.01,2013-03-03 05:09:00,
2013-03-02 21:15:00,39.4,34.7,29.85,South,190,0.0,4.0,83,0.08,,---,0.31,VWS V14.01,2013-03-03 05:15:00,
2013-03-02 21:20:00,39.4,34.7,29.85,South,178,3.1,4.5,83,0.04,,---,0.31,VWS V14.01,2013-03-03 05:20:00,
2013-03-02 21:25:00,39.4,34.7,29.85,SSW,206,5.4,5.4,83,0.04,,---,0.31,VWS V14.01,2013-03-03 05:25:00,
2013-03-02 21:31:00,39.4,35.0,29.85,SSE,161,2.2,2.7,84,0.04,,---,0.31,VWS V14.01,2013-03-03 05:31:00,
2013-03-02 21:37:00,39.4,35.0,29.85,South,170,3.1,4.0,84,0.04,,---,0.31,VWS V14.01,2013-03-03 05:37:00,
2013-03-02 21:43:00,39.4,35.2,29.85,SSE,153,3.1,3.6,85,0.04,,---,0.31,VWS V14.01,2013-03-03 05:43:00,
2013-03-02 21:48:00,39.0,34.9,29.85,SSE,150,3.6,4.0,85,0.08,,---,0.35,VWS V14.01,2013-03-03 05:48:00,
2013-03-02 21:54:00,38.8,33.2,29.85,South,183,3.1,6.7,80,0.08,,---,0.35,VWS V14.01,2013-03-03 05:54:00,
2013-03-02 21:59:00,38.7,31.4,29.85,South,178,6.3,7.6,75,0.08,,---,0.35,VWS V14.01,2013-03-03 05:59:00,
2013-03-02 22:05:00,38.5,28.5,29.85,SSW,207,3.6,6.3,67,0.08,,---,0.35,VWS V14.01,2013-03-03 06:05:00,
2013-03-02 22:10:00,38.5,27.8,29.85,SSW,200,3.6,4.0,65,0.08,,---,0.35,VWS V14.01,2013-03-03 06:10:00,
2013-03-02 22:15:00,38.3,27.2,29.85,SW,215,2.2,4.5,64,0.04,,---,0.35,VWS V14.01,2013-03-03 06:15:00,
2013-03-02 22:21:00,38.3,26.4,29.85,SSE,157,3.1,4.0,62,0.04,,---,0.35,VWS V14.01,2013-03-03 06:21:00,
2013-03-02 22:26:00,38.3,26.4,29.85,SSW,198,3.6,3.6,62,0.04,,---,0.35,VWS V14.01,2013-03-03 06:26:00,
2013-03-02 22:31:00,38.1,26.3,29.85,SW,216,4.0,4.0,62,0.04,,---,0.35,VWS V14.01,2013-03-03 06:31:00,
2013-03-02 22:36:00,38.1,27.4,29.85,SSE,165,2.7,2.7,65,0.04,,---,0.35,VWS V14.01,2013-03-03 06:36:00,
2013-03-02 22:42:00,37.9,27.6,29.85,SSW,204,2.2,3.1,66,0.04,,---,0.35,VWS V14.01,2013-03-03 06:42:00,
2013-03-02 22:47:00,37.9,28.0,29.85,SSW,208,4.0,4.0,67,0.00,,---,0.35,VWS V14.01,2013-03-03 06:47:00,
2013-03-02 22:53:00,37.8,27.8,29.85,SSW,212,5.4,8.1,67,0.04,,---,0.39,VWS V14.01,2013-03-03 06:53:00,
2013-03-02 22:58:00,37.6,29.4,29.85,SSE,152,0.0,4.0,72,0.04,,---,0.39,VWS V14.01,2013-03-03 06:58:00,
2013-03-02 23:04:00,37.6,28.7,29.88,SSW,196,5.8,7.6,70,0.04,,---,0.39,VWS V14.01,2013-03-03 07:04:00,
2013-03-02 23:09:00,37.4,26.7,29.88,SW,222,6.7,8.3,65,0.04,,---,0.39,VWS V14.01,2013-03-03 07:09:00,
2013-03-02 23:15:00,37.4,26.7,29.85,SSW,197,3.6,4.9,65,0.04,,---,0.39,VWS V14.01,2013-03-03 07:15:00,
2013-03-02 23:20:00,37.4,27.5,29.85,SSE,164,2.2,5.4,67,0.04,,---,0.39,VWS V14.01,2013-03-03 07:20:00,
2013-03-02 23:26:00,37.6,29.4,29.85,SSW,192,2.7,3.6,72,0.04,,---,0.39,VWS V14.01,2013-03-03 07:26:00,
2013-03-02 23:31:00,37.6,29.7,29.85,South,177,5.8,5.8,73,0.04,,---,0.39,VWS V14.01,2013-03-03 07:31:00,
2013-03-02 23:36:00,37.4,28.9,29.85,SSW,210,8.1,8.1,71,0.04,,---,0.39,VWS V14.01,2013-03-03 07:36:00,
2013-03-02 23:41:00,37.2,28.4,29.85,South,185,5.8,5.8,70,0.04,,---,0.39,VWS V14.01,2013-03-03 07:41:00,
2013-03-02 23:47:00,37.2,28.4,29.85,South,185,4.0,6.7,70,0.04,,---,0.39,VWS V14.01,2013-03-03 07:47:00,
2013-03-02 23:53:00,37.0,28.9,29.85,South,191,0.0,2.7,72,0.00,,---,0.39,VWS V14.01,2013-03-03 07:53:00,
2013-03-02 23:58:00,37.0,29.2,29.85,SW,215,4.9,4.9,73,0.00,,---,0.39,VWS V14.01,2013-03-03 07:58:00,